Location: *
(42.5628°N, 2.3633°E)
Time: 20:48:21
(UTC+00:00)

Cosmos 2237 Rocket - Pass Details

Date: 30 March 2020
Orbit: 833 x 851 km, 71.0° (Epoch: 30 May)

Event Time Altitude Azimuth Distance (km) Brightness Sun altitude
Rises 18:56:19 0° 218° (SW) 3,367 5.7 -8.4°
Reaches altitude 10° 18:58:49 10° 223° (SW) 2,437 5.0 -8.8°
Maximum altitude 19:04:15 52° 299° (WNW) 1,036 3.2 -9.8°
Drops below altitude 10° 19:09:44 10° 16° (NNE) 2,457 4.6 -10.8°
Sets 19:12:16 0° 21° (NNE) 3,397 5.3 -11.2°
